Regional Weather Roundup
Issued by NWS

Home | Current Version | Previous Version | Text Only | Print | Product List | Glossary On
Versions: 1 2 3 4 5 6 7 8 9 10 11 12 13 14 15 16 17 18 19 20 21 22 23 24 25 26 27 28 29 30 31 32 33 34 35 36 37 38 39 40 41 42 43 44 45 46 47 48 49 50
000
ASUS44 KFWD 310815
RWRTX
NORTH TEXAS HOURLY WEATHER ROUNDUP
NATIONAL WEATHER SERVICE FORT WORTH TX
300 AM CDT SUN AUG 31 2014

NOTE: "FAIR" INDICATES FEW OR NO CLOUDS BELOW 12,000 FEET WITH NO
SIGNIFICANT WEATHER AND/OR OBSTRUCTIONS TO VISIBILITY.

TXZ118-119-310900-
DALLAS/FORT WORTH METROPLEX

CITY           SKY/WX    TMP DP  RH WIND       PRES   REMARKS
DFW AIRPORT    CLEAR     78  69  73 E5        29.92R
DALLAS LOVE    PTCLDY    80  70  71 SE12      29.93R
FTW MEACHAM    CLEAR     79  68  69 S7        29.91F
DAL-EXECUTIVE  CLEAR     80  70  71 S7        29.93R
FTW-ALLIANCE   PTCLDY    77  68  73 S6        29.91S
FTW-NAS-JRB    CLEAR     81  66  60 S3        29.96S
FTW-SPINKS     CLEAR     77  68  74 S6        29.94R
ARLINGTON      CLEAR     78  68  71 S7        29.92F
GRAND PRAIRIE  CLEAR     80  68  68 S8        29.93S
ADDISON        CLEAR     81  68  66 SE8       29.95R
MESQUITE       CLEAR     75  71  87 SE6       29.94S
LANCASTER      CLEAR     74  70  86 SE3       29.95R
$$

TXZ091>094-102>105-117-120-121-131>134-310900-
NORTH CENTRAL TEXAS

CITY           SKY/WX    TMP DP  RH WIND       PRES   REMARKS
SHRMAN/DENISON CLEAR     77  68  74 SE10      29.94S
GAINESVILLE    CLEAR     74  69  86 SE3       29.94F
BOWIE          CLEAR     75  70  85 SE3       29.93S
BRIDGEPORT     CLEAR     75  67  75 CALM      29.93F
DECATUR        CLEAR     78  66  66 S10       29.93S
DENTON         CLEAR     77  69  76 SE7       29.92S
MCKINNEY       CLEAR     77  70  79 SE9       29.93S
GREENVILLE     CLEAR     77  72  83 S9        29.95R
ROCKWALL       CLEAR     76  72  86 S7        29.93S
TERRELL        CLEAR     78  75  90 SE8       29.95R
WAXAHACHIE     CLEAR     76  68  77 S8        29.95R
CLEBURNE       CLEAR     75  70  83 SE7       29.95S
GRANBURY       CLEAR     80  69  68 SE3       29.93S
$$

TXZ083>090-098>101-113>116-127>130-139>142-154-155-310900-
WESTERN NORTH TEXAS

CITY           SKY/WX    TMP DP  RH WIND       PRES   REMARKS
WICHITA FALLS  CLEAR     77  69  76 S9        29.89F
WF-KICKAPOO    CLEAR     76  67  74 SW6       29.90F
VERNON         CLEAR     79  67  66 S10       29.91S
ABILENE        CLEAR     77  66  68 S9        29.95F
ABILENE-DYESS  CLEAR     75  67  74 S9        29.94S
BRECKENRIDGE   CLEAR     79  67  67 S7        29.93R
GRAHAM         CLEAR     77  69  74 CALM      29.91R
MINERAL WELLS  CLEAR     75  69  81 SE9       29.91F
STEPHENVILLE   CLEAR     74  69  83 CALM      29.97F
COMANCHE         N/A     75  68  77 S8        29.95F
BROWNWOOD      PTCLDY    73  68  83 S3        29.95F
COLEMAN        CLEAR     74  67  77 S5        29.96F
BRADY          CLEAR     73  66  78 SE5       29.98S
$$

TXZ143>147-156>162-174-175-310900-
CENTRAL TEXAS

CITY           SKY/WX    TMP DP  RH WIND       PRES   REMARKS
WACO           CLEAR     79  72  79 S14       29.95R
WACO-MCGREGOR  CLEAR     77  68  73 S10       29.96R
HILLSBORO      CLEAR     78  69  73 S10       29.95R
CORSICANA      CLEAR     77  72  84 S9        29.96R
MEXIA          CLEAR     74  72  92 S7        29.95S
HEARNE           N/A     74  71  90 SE5       29.96F
CAMERON        CLEAR     76  72  87 S8        29.95F
TEMPLE         CLEAR     77  68  73 S14       29.95S
KILLEEN        PTCLDY    79  73  83 S14       29.96S
KILLEEN-SKYLRK CLEAR     79  68  69 S9        29.95R
FORT HOOD      CLEAR     79  72  79 SE8       29.96S
GATESVILLE     CLEAR     75  72  88 SE3       29.97S
LAMPASAS       CLEAR     76  73  91 CALM      29.96F
$$

TXZ095>097-106>112-122>126-135>138-148>153-164>167-310900-
EAST TEXAS

CITY           SKY/WX    TMP DP  RH WIND       PRES   REMARKS
PARIS          CLEAR     73  66  78 S6        29.95S
SULPHUR SPRNGS CLEAR     77  74  88 S7        29.97R
MOUNT PLEASANT CLEAR     73  73  98 CALM      29.97R
GILMER         CLOUDY    77  75  94 S8        29.98S
MINEOLA        CLEAR     77  75  94 S5        29.96S
TYLER          CLOUDY    78  74  87 S9        29.97R
LONGVIEW       PTCLDY    76  72  87 S7        29.97S
MARSHALL       PTCLDY    77  74  90 S3        30.00R
ATHENS         CLOUDY    75  73  94 S6        29.96R
PALESTINE      PTCLDY    76  74  96 SE3       29.98S
JACKSONVILLE   PTCLDY    75  74  94 S8        30.00S
HENDERSON      CLOUDY    75  73  95 CALM      29.99S
NACOGDOCHES    PTCLDY    73  72  94 CALM      29.98S
LUFKIN         MOCLDY    76  72  87 SE3       29.97S
$$

SUPPLEMENTAL OBSERVATIONS (CENTRAL)

CITY           SKY/WX    TMP DP  RH WIND       PRES   REMARKS
LAKE TEXOMA      N/A     75  68  78 SE1         N/A
PAT MAYSE LAKE   N/A     75  72  88 SE9         N/A
GREENVILLE       N/A     75  72  88 S6          N/A
CEDAR HILL       N/A     79  70  73 S8          N/A
PALESTINE        N/A     75  72  88 S6          N/A
LAKE LIMESTONE   N/A     75  72  88 S5          N/A
MCGREGOR         N/A     79  72  78 S13         N/A
TEMPLE           N/A     75  70  83 S10         N/A
$$

SUPPLEMENTAL OBSERVATIONS (WEST)

CITY           SKY/WX    TMP DP  RH WIND       PRES   REMARKS
MILLERS CREEK    N/A     77  64  65 S9          N/A
POSSUM KINGDOM   N/A     77  68  73 SE5         N/A
GRANBURY         N/A     79  68  69 SE5         N/A
COMANCHE         N/A     75  66  73 S9          N/A
HAMBY            N/A     75  64  69 S7          N/A
IVIE RESERVOIR   N/A     73  64  73 SE5         N/A
COLORADO BEND    N/A     79  70  73 S7          N/A
$$

SUPPLEMENTAL OBSERVATIONS (EAST)

CITY           SKY/WX    TMP DP  RH WIND       PRES   REMARKS
CLARKSVILLE      N/A     73  70  88 S5          N/A
TEXARKANA        N/A     73  72  94 CALM        N/A
LINDEN           N/A     73  70  88 S2          N/A
CADDO LAKE       N/A     73  72  94 S1          N/A
GILMER           N/A     77  73  88 S6          N/A
HENDERSON        N/A     75  72  88 S6          N/A
LUFKIN           N/A     75  72  88 MISG        N/A
N SABINE NF      N/A     73  70  88 MISG        N/A
S SABINE NF      N/A     73  70  88 CALM        N/A
$$

SUPPLEMENTAL OBSERVATIONS ARE A COLLECTION OF AUTOMATED INSTRUMENTS
THAT ARE MAINTAINED BY A VARIETY OF FEDERAL AND STATE AGENCIES.
CERTAIN ELEMENTS...SUCH AS HUMIDITY VALUES AND SUSTAINED WIND
SPEEDS...MAY BE APPROXIMATED.



USA.gov is the U.S. government's official web portal to all federal, state and local government web resources and services.